Regional Weather Roundup
Issued by NWS

Home | Current Version | Previous Version | Graphics & Text | Print | Product List | Glossary On
Versions: 1 2 3 4 5 6 7 8 9 10 11 12 13 14 15 16 17 18 19 20 21 22 23 24 25 26 27
000
ASUS45 KCYS 161810
RWRWY

WYOMING REGIONAL WEATHER ROUNDUP
NATIONAL WEATHER SERVICE CHEYENNE WY
1200 PM MDT WED AUG 16 2017

NOTE:  "FAIR" INDICATES FEW OR NO CLOUDS BELOW 12,000 FEET
WITH NO SIGNIFICANT WEATHER AND/OR OBSTRUCTIONS TO VISIBILITY.

WYZ001-161900-
YELLOWSTONE NATIONAL PARK

CITY           SKY/WX    TMP DP  RH WIND       PRES   REMARKS
LK YELLOWSTONE   N/A     59  45  59 VRB5      30.28F
6HR MIN TEMP:  33; 6HR MAX TEMP:  62;

W YELLOWSTONE  NOT AVBL

$$
WYZ002>013-054>058-071-098>099-161900-
NORTHERN WYOMING

CITY           SKY/WX    TMP DP  RH WIND       PRES   REMARKS
JACKSON        FAIR      65  42  43 VRB5      30.22F
CODY           FAIR      77  39  25 W7G16     30.08F
GREYBULL       NOT AVBL
WORLAND        FAIR      76  49  38 N6        30.05S
SHERIDAN       FAIR      82  37  20 SE7       30.02F
6HR MIN TEMP:  44; 6HR MAX TEMP:  82;

BUFFALO        FAIR      75  31  19 SE7       30.09S
6HR MIN TEMP:  53; 6HR MAX TEMP:  77;

GILLETTE         N/A     75  35  23 CALM      30.06S
HULETT         FAIR      72  45  37 CALM      30.08S
NEWCASTLE      FAIR      72  37  28 NW8G18    30.06S

$$
WYZ014>020-022>026-101>103-161900-
CENTRAL WYOMING

CITY           SKY/WX    TMP DP  RH WIND       PRES   REMARKS
BIG PINEY      FAIR      65  43  44 SW6       30.25F
6HR MIN TEMP:  36; 6HR MAX TEMP:  65;

PINEDALE       FAIR      64  36  34 CALM      30.26S
DUBOIS         FAIR      68  32  26 NW15      30.21F
LANDER           N/A    N/A N/A N/A MISG      30.13F
RIVERTON       FAIR      69  47  45 CALM      30.14F
6HR MIN TEMP:  48; 6HR MAX TEMP:  69;

CASPER         FAIR      69  45  41 VRB5      30.13S
6HR MIN TEMP:  47; 6HR MAX TEMP:  71;

DOUGLAS        FAIR      71  42  35 VRB7      30.12F
6HR MIN TEMP:  48; 6HR MAX TEMP:  71;


$$
WYZ021-027>030-104>119-161900-
SOUTHERN WYOMING

CITY           SKY/WX    TMP DP  RH WIND       PRES   REMARKS
EVANSTON       FAIR      69  34  27 VRB6      30.25F
6HR MIN TEMP:  44; 6HR MAX TEMP:  69;

KEMMERER         N/A     66  32  28 S5        30.26F
FORT BRIDGER   FAIR      70  37  30 W5        30.29S
ROCK SPRINGS   FAIR      66  42  41 VRB3      30.24S
6HR MIN TEMP:  47; 6HR MAX TEMP:  66;

RAWLINS        FAIR      65  42  43 VRB7      30.23S
6HR MIN TEMP:  43; 6HR MAX TEMP:  65;

SARATOGA       FAIR      63  46  55 NW6       30.25S
LARAMIE        FAIR      63  38  39 N13       30.22S
6HR MIN TEMP:  44; 6HR MAX TEMP:  64;

CHEYENNE       FAIR      67  37  33 N18G24    30.17S
6HR MIN TEMP:  52; 6HR MAX TEMP:  67;

TORRINGTON     FAIR      73  45  36 N13G18    30.06S
6HR MIN TEMP:  54; 6HR MAX TEMP:  73;

PINE BLUFFS    FAIR      68  45  42 N14G24    30.13S

$$




USA.gov is the U.S. government's official web portal to all federal, state and local government web resources and services.